| time (UTC) | temp C | wind direction | speed KPH | gust KPH | rain 1hr cm | rain 24hr cm | rain mn cm | humidity % | barometer mb |
| 20260903001505 | 27 | 225 | 3.2 | 3.2 | 0.00 | 0.00 | 0.00 | 96 | 1019.3 |
| 20260903000931 | 27 | 225 | 3.2 | 4.8 | 0.00 | 0.00 | 0.00 | 96 | 1019.3 |
| 20260903000344 | 27 | 225 | 0.0 | 1.6 | 0.00 | 0.00 | 0.00 | 94 | 1019.3 |
| 20260902235720 | 27 | 203 | 3.2 | 3.2 | 0.00 | 0.00 | 0.00 | 94 | 1019.3 |
| 20260902235116 | 28 | 180 | 3.2 | 3.2 | 0.00 | 0.00 | 0.00 | 93 | 1019.3 |
| 20260902234516 | 28 | 203 | 3.2 | 3.2 | 0.00 | 0.00 | 0.00 | 92 | 1019.3 |
| 20260902233910 | 28 | 203 | 3.2 | 3.2 | 0.00 | 0.00 | 0.00 | 89 | 1019.3 |
| 20260902233347 | 29 | 203 | 1.6 | 3.2 | 0.00 | 0.00 | 0.00 | 86 | 1019.3 |
| 20260902232721 | 30 | 225 | 3.2 | 4.8 | 0.00 | 0.00 | 0.00 | 85 | 1019.3 |
| 20260902231506 | 31 | 203 | 3.2 | 3.2 | 0.00 | 0.00 | 0.00 | 81 | 1019.3 |
| 20260902230925 | 32 | 225 | 3.2 | 4.8 | 0.00 | 0.00 | 0.00 | 75 | 1019.3 |
| 20260902225744 | 32 | 203 | 6.4 | 6.4 | 0.00 | 0.00 | 0.00 | 76 | 1019.3 |
| 20260902225108 | 33 | 180 | 4.8 | 4.8 | 0.00 | 0.00 | 0.00 | 72 | 1019.3 |
| 20260902224527 | 33 | 225 | 3.2 | 4.8 | 0.00 | 0.00 | 0.00 | 71 | 1019.3 |
| 20260902223919 | 34 | 225 | 4.8 | 6.4 | 0.00 | 0.00 | 0.00 | 70 | 1019.3 |
| 20260902223305 | 34 | 225 | 3.2 | 4.8 | 0.00 | 0.00 | 0.00 | 70 | 1019.3 |
| 20260902222712 | 34 | 180 | 4.8 | 4.8 | 0.00 | 0.00 | 0.00 | 69 | 1019.3 |
| 20260902222134 | 34 | 225 | 6.4 | 6.4 | 0.00 | 0.00 | 0.00 | 69 | 1019.3 |
| 20260902221527 | 35 | 203 | 6.4 | 6.4 | 0.00 | 0.00 | 0.00 | 67 | 1019.3 |
| 20260902220948 | 35 | 203 | 4.8 | 6.4 | 0.00 | 0.00 | 0.00 | 66 | 1019.3 |
| 20260902220308 | 36 | 158 | 3.2 | 6.4 | 0.00 | 0.00 | 0.00 | 63 | 1019.3 |
| 20260902215711 | 35 | 180 | 6.4 | 6.4 | 0.00 | 0.00 | 0.00 | 64 | 1019.3 |
| 20260902215144 | 40 | 225 | 4.8 | 6.4 | 0.00 | 0.00 | 0.00 | 55 | 1019.6 |
| 20260902214509 | 40 | 203 | 4.8 | 4.8 | 0.00 | 0.00 | 0.00 | 54 | 1019.3 |
| 20260902213936 | 38 | 0 | 0.0 | 4.8 | 0.00 | 0.00 | 0.00 | 54 | 1019.3 |
| 20260902213338 | 40 | 203 | 3.2 | 4.8 | 0.00 | 0.00 | 0.00 | 52 | 1019.3 |
| 20260902212731 | 38 | 0 | 1.6 | 4.8 | 0.00 | 0.00 | 0.00 | 52 | 1019.3 |
| 20260902212120 | 38 | 225 | 3.2 | 4.8 | 0.00 | 0.00 | 0.00 | 52 | 1019.3 |
| 20260902211528 | 38 | 45 | 6.4 | 6.4 | 0.00 | 0.00 | 0.00 | 54 | 1019.6 |
| 20260902210346 | 40 | 203 | 3.2 | 6.4 | 0.00 | 0.00 | 0.00 | 51 | 1019.6 |
| 20260902205741 | 40 | 180 | 1.6 | 3.2 | 0.00 | 0.00 | 0.00 | 51 | 1019.6 |
| 20260902205127 | 41 | 203 | 1.6 | 4.8 | 0.00 | 0.00 | 0.00 | 51 | 1019.6 |
| 20260902203932 | 38 | 225 | 3.2 | 3.2 | 0.00 | 0.00 | 0.00 | 53 | 1019.9 |
| 20260902203344 | 40 | 225 | 3.2 | 6.4 | 0.00 | 0.00 | 0.00 | 51 | 1019.6 |
| 20260902202149 | 40 | 225 | 0.0 | 0.0 | 0.00 | 0.00 | 0.00 | 54 | 1019.6 |
| 20260902201522 | 41 | 248 | 3.2 | 4.8 | 0.00 | 0.00 | 0.00 | 50 | 1019.9 |
| 20260902200942 | 40 | 45 | 3.2 | 6.4 | 0.00 | 0.00 | 0.00 | 48 | 1019.9 |
| 20260902200323 | 40 | 158 | 4.8 | 8.0 | 0.00 | 0.00 | 0.00 | 51 | 1019.9 |
| 20260902195722 | 38 | 248 | 0.0 | 4.8 | 0.00 | 0.00 | 0.00 | 51 | 1019.9 |
| 20260902193930 | 38 | 45 | 0.0 | 6.4 | 0.00 | 0.00 | 0.00 | 56 | 1020.3 |
| 20260902192730 | 38 | 203 | 4.8 | 6.4 | 0.00 | 0.00 | 0.00 | 58 | 1020.3 |
| 20260902192136 | 37 | 203 | 4.8 | 4.8 | 0.00 | 0.00 | 0.00 | 59 | 1020.3 |
| 20260902191520 | 39 | 225 | 6.4 | 6.4 | 0.00 | 0.00 | 0.00 | 54 | 1020.3 |
| 20260902190935 | 38 | 225 | 6.4 | 8.0 | 0.00 | 0.00 | 0.00 | 58 | 1020.3 |
| 20260902190313 | 37 | 158 | 6.4 | 8.0 | 0.00 | 0.00 | 0.00 | 59 | 1020.6 |
| 20260902185110 | 37 | 203 | 4.8 | 6.4 | 0.00 | 0.00 | 0.00 | 57 | 1020.6 |
| 20260902184516 | 40 | 45 | 1.6 | 1.6 | 0.00 | 0.00 | 0.00 | 50 | 1020.6 |
| 20260902183328 | 39 | 315 | 3.2 | 4.8 | 0.00 | 0.00 | 0.00 | 53 | 1020.6 |
| 20260902182735 | 38 | 135 | 4.8 | 6.4 | 0.00 | 0.00 | 0.00 | 55 | 1020.6 |
| 20260902182144 | 38 | 90 | 6.4 | 6.4 | 0.00 | 0.00 | 0.00 | 57 | 1020.6 |
| 20260902181524 | 36 | 90 | 3.2 | 3.2 | 0.00 | 0.00 | 0.00 | 60 | 1020.9 |
| 20260902180917 | 36 | 293 | 4.8 | 4.8 | 0.00 | 0.00 | 0.00 | 60 | 1020.9 |
| 20260902175722 | 36 | 23 | 4.8 | 6.4 | 0.00 | 0.00 | 0.00 | 58 | 1020.9 |
| 20260902175149 | 36 | 270 | 3.2 | 4.8 | 0.00 | 0.00 | 0.00 | 60 | 1020.9 |
| 20260902174513 | 36 | 338 | 4.8 | 4.8 | 0.00 | 0.00 | 0.00 | 58 | 1021.3 |
| 20260902173913 | 36 | 90 | 1.6 | 4.8 | 0.00 | 0.00 | 0.00 | 62 | 1021.3 |
| 20260902173324 | 35 | 23 | 4.8 | 6.4 | 0.00 | 0.00 | 0.00 | 60 | 1021.6 |
| 20260902172743 | 35 | 23 | 8.0 | 8.0 | 0.00 | 0.00 | 0.00 | 61 | 1021.6 |
| 20260902171515 | 35 | 270 | 3.2 | 3.2 | 0.00 | 0.00 | 0.00 | 61 | 1022.0 |
| 20260902170937 | 35 | 203 | 6.4 | 6.4 | 0.00 | 0.00 | 0.00 | 60 | 1022.0 |
| 20260902165724 | 34 | 0 | 1.6 | 1.6 | 0.00 | 0.00 | 0.00 | 63 | 1022.0 |
| 20260902165116 | 34 | 23 | 1.6 | 3.2 | 0.00 | 0.00 | 0.00 | 63 | 1022.0 |
| 20260902164509 | 34 | 23 | 8.0 | 8.0 | 0.00 | 0.00 | 0.00 | 63 | 1022.0 |
| 20260902163912 | 34 | 23 | 3.2 | 6.4 | 0.00 | 0.00 | 0.00 | 65 | 1022.3 |
| 20260902162746 | 35 | 225 | 3.2 | 4.8 | 0.00 | 0.00 | 0.00 | 64 | 1022.3 |
| 20260902161510 | 35 | 203 | 4.8 | 4.8 | 0.00 | 0.00 | 0.00 | 65 | 1022.6 |
| 20260902160909 | 35 | 180 | 3.2 | 4.8 | 0.00 | 0.00 | 0.00 | 68 | 1022.6 |
| 20260902160313 | 35 | 270 | 8.0 | 8.0 | 0.00 | 0.00 | 0.00 | 68 | 1022.6 |
| 20260902155109 | 34 | 203 | 8.0 | 8.0 | 0.00 | 0.00 | 0.00 | 70 | 1022.6 |
| 20260902154534 | 34 | 225 | 3.2 | 3.2 | 0.00 | 0.00 | 0.00 | 71 | 1022.6 |
| 20260902153913 | 33 | 180 | 3.2 | 4.8 | 0.00 | 0.00 | 0.00 | 74 | 1022.6 |
| 20260902153343 | 33 | 180 | 4.8 | 6.4 | 0.00 | 0.00 | 0.00 | 75 | 1022.3 |
| 20260902152731 | 33 | 135 | 3.2 | 4.8 | 0.00 | 0.00 | 0.00 | 74 | 1022.6 |
| 20260902152148 | 33 | 158 | 3.2 | 6.4 | 0.00 | 0.00 | 0.00 | 75 | 1022.6 |
| 20260902151521 | 32 | 225 | 3.2 | 3.2 | 0.00 | 0.00 | 0.00 | 78 | 1022.6 |
| 20260902150946 | 32 | 180 | 3.2 | 6.4 | 0.00 | 0.00 | 0.00 | 79 | 1022.6 |
| 20260902150321 | 32 | 225 | 3.2 | 4.8 | 0.00 | 0.00 | 0.00 | 78 | 1022.6 |
| 20260902145706 | 32 | 338 | 0.0 | 3.2 | 0.00 | 0.00 | 0.00 | 78 | 1022.6 |
| 20260902145124 | 31 | 203 | 3.2 | 4.8 | 0.00 | 0.00 | 0.00 | 80 | 1022.6 |
| 20260902144544 | 31 | 158 | 0.0 | 0.0 | 0.00 | 0.00 | 0.00 | 82 | 1022.6 |
| 20260902143925 | 31 | 225 | 3.2 | 3.2 | 0.00 | 0.00 | 0.00 | 81 | 1022.6 |
| 20260902143334 | 30 | 338 | 0.0 | 4.8 | 0.00 | 0.00 | 0.00 | 83 | 1022.6 |
| 20260902142112 | 30 | 270 | 1.6 | 3.2 | 0.00 | 0.00 | 0.00 | 85 | 1022.6 |
| 20260902141510 | 30 | 203 | 3.2 | 3.2 | 0.00 | 0.00 | 0.00 | 86 | 1022.6 |
| 20260902140912 | 29 | 158 | 3.2 | 3.2 | 0.00 | 0.00 | 0.00 | 87 | 1022.6 |
| 20260902140329 | 28 | 203 | 0.0 | 0.0 | 0.00 | 0.00 | 0.00 | 88 | 1022.3 |
| 20260902135749 | 28 | 225 | 1.6 | 4.8 | 0.00 | 0.00 | 0.00 | 90 | 1022.3 |
| 20260902135130 | 27 | 180 | 0.0 | 3.2 | 0.00 | 0.00 | 0.00 | 91 | 1022.3 |
| 20260902134547 | 27 | 203 | 3.2 | 3.2 | 0.00 | 0.00 | 0.00 | 92 | 1022.3 |
| 20260902133947 | 27 | 203 | 0.0 | 3.2 | 0.00 | 0.00 | 0.00 | 93 | 1022.3 |
| 20260902132736 | 26 | 248 | 1.6 | 4.8 | 0.00 | 0.00 | 0.00 | 97 | 1022.3 |
| 20260902132118 | 26 | 203 | 3.2 | 3.2 | 0.00 | 0.00 | 0.00 | 97 | 1022.3 |
| 20260902131515 | 26 | 203 | 1.6 | 3.2 | 0.00 | 0.00 | 0.00 | 98 | 1022.3 |
| 20260902130927 | 25 | 203 | 0.0 | 3.2 | 0.00 | 0.00 | 0.00 | 99 | 1022.3 |
| 20260902130319 | 25 | 225 | 0.0 | 3.2 | 0.00 | 0.00 | 0.00 | 99 | 1022.6 |
| 20260902125725 | 24 | 270 | 0.0 | 0.0 | 0.00 | 0.00 | 0.00 | 99 | 1022.3 |
| 20260902125134 | 23 | 248 | 0.0 | 0.0 | 0.00 | 0.00 | 0.00 | 99 | 1022.3 |
| 20260902124520 | 23 | 248 | 0.0 | 0.0 | 0.00 | 0.00 | 0.00 | 99 | 1022.6 |
| 20260902123920 | 23 | 203 | 0.0 | 3.2 | 0.00 | 0.00 | 0.00 | 99 | 1022.3 |
| 20260902123305 | 22 | 203 | 0.0 | 4.8 | 0.00 | 0.00 | 0.00 | 99 | 1022.3 |
| 20260902122707 | 22 | 225 | 0.0 | 0.0 | 0.00 | 0.00 | 0.00 | 99 | 1022.6 |
| 20260902122147 | 22 | 180 | 0.0 | 0.0 | 0.00 | 0.00 | 0.00 | 99 | 1022.6 |
| 20260902120946 | 21 | 315 | 0.0 | 0.0 | 0.00 | 0.00 | 0.00 | 99 | 1022.3 |
| 20260902115705 | 21 | 270 | 0.0 | 0.0 | 0.00 | 0.00 | 0.00 | 99 | 1022.3 |
| 20260902115128 | 21 | 270 | 0.0 | 0.0 | 0.00 | 0.00 | 0.00 | 99 | 1022.3 |
| 20260902114505 | 21 | 270 | 0.0 | 0.0 | 0.00 | 0.00 | 0.00 | 99 | 1022.3 |
| 20260902113332 | 21 | 225 | 0.0 | 0.0 | 0.00 | 0.00 | 0.00 | 99 | 1022.3 |
| 20260902112750 | 21 | 270 | 0.0 | 0.0 | 0.00 | 0.00 | 0.00 | 99 | 1022.3 |
| 20260902112137 | 21 | 248 | 0.0 | 0.0 | 0.00 | 0.00 | 0.00 | 99 | 1022.0 |
| 20260902111520 | 21 | 203 | 0.0 | 0.0 | 0.00 | 0.00 | 0.00 | 99 | 1022.0 |
| 20260902110317 | 21 | 248 | 0.0 | 0.0 | 0.00 | 0.00 | 0.00 | 99 | 1022.0 |
| 20260902105722 | 21 | 225 | 0.0 | 0.0 | 0.00 | 0.00 | 0.00 | 99 | 1022.0 |
| 20260902105120 | 21 | 203 | 0.0 | 0.0 | 0.00 | 0.00 | 0.00 | 99 | 1022.0 |
| 20260902104535 | 21 | 90 | 0.0 | 0.0 | 0.00 | 0.00 | 0.00 | 99 | 1022.0 |
| 20260902103327 | 21 | 270 | 0.0 | 0.0 | 0.00 | 0.00 | 0.00 | 99 | 1022.0 |
| 20260902101523 | 21 | 225 | 0.0 | 0.0 | 0.00 | 0.00 | 0.00 | 99 | 1022.0 |
| 20260902100905 | 21 | 248 | 0.0 | 0.0 | 0.00 | 0.00 | 0.00 | 99 | 1022.0 |
| 20260902100346 | 21 | 270 | 0.0 | 0.0 | 0.00 | 0.00 | 0.00 | 99 | 1022.0 |
| 20260902095748 | 21 | 270 | 0.0 | 0.0 | 0.00 | 0.00 | 0.00 | 99 | 1022.0 |
| 20260902095132 | 21 | 225 | 0.0 | 0.0 | 0.00 | 0.00 | 0.00 | 99 | 1022.0 |
| 20260902094531 | 21 | 270 | 0.0 | 0.0 | 0.00 | 0.00 | 0.00 | 99 | 1022.0 |
| 20260902093304 | 21 | 203 | 0.0 | 0.0 | 0.00 | 0.00 | 0.00 | 99 | 1021.6 |
| 20260902092739 | 21 | 225 | 0.0 | 0.0 | 0.00 | 0.00 | 0.00 | 99 | 1021.6 |
| 20260902092147 | 21 | 203 | 0.0 | 0.0 | 0.00 | 0.00 | 0.00 | 99 | 1021.6 |
| 20260902091507 | 21 | 225 | 0.0 | 0.0 | 0.00 | 0.00 | 0.00 | 99 | 1021.6 |
| 20260902090925 | 21 | 203 | 0.0 | 0.0 | 0.00 | 0.00 | 0.00 | 99 | 1021.6 |
| 20260902090321 | 21 | 203 | 0.0 | 0.0 | 0.00 | 0.00 | 0.00 | 99 | 1021.6 |
| 20260902085744 | 21 | 180 | 0.0 | 0.0 | 0.00 | 0.00 | 0.00 | 99 | 1021.3 |
| 20260902085148 | 21 | 270 | 0.0 | 0.0 | 0.00 | 0.00 | 0.00 | 99 | 1021.6 |
| 20260902084508 | 21 | 270 | 0.0 | 0.0 | 0.00 | 0.00 | 0.00 | 99 | 1021.3 |
| 20260902083909 | 21 | 225 | 0.0 | 0.0 | 0.00 | 0.00 | 0.00 | 99 | 1021.3 |
| 20260902082108 | 21 | 225 | 0.0 | 0.0 | 0.00 | 0.00 | 0.00 | 99 | 1021.3 |
| 20260902081539 | 21 | 203 | 0.0 | 0.0 | 0.00 | 0.00 | 0.00 | 99 | 1021.3 |
| 20260902080323 | 21 | 203 | 0.0 | 0.0 | 0.00 | 0.00 | 0.00 | 99 | 1021.3 |
| 20260902075708 | 21 | 203 | 0.0 | 0.0 | 0.00 | 0.00 | 0.00 | 99 | 1021.3 |
| 20260902075114 | 21 | 225 | 0.0 | 0.0 | 0.00 | 0.00 | 0.00 | 99 | 1021.3 |
| 20260902074519 | 21 | 270 | 0.0 | 0.0 | 0.00 | 0.00 | 0.00 | 99 | 1021.3 |
| 20260902073915 | 21 | 270 | 0.0 | 0.0 | 0.00 | 0.00 | 0.00 | 99 | 1021.3 |
| 20260902073306 | 21 | 180 | 0.0 | 0.0 | 0.00 | 0.00 | 0.00 | 99 | 1021.3 |
| 20260902072722 | 21 | 293 | 0.0 | 0.0 | 0.00 | 0.00 | 0.00 | 99 | 1021.3 |
| 20260902072145 | 21 | 270 | 0.0 | 0.0 | 0.00 | 0.00 | 0.00 | 99 | 1021.3 |
| 20260902070909 | 21 | 270 | 0.0 | 0.0 | 0.00 | 0.00 | 0.00 | 99 | 1021.3 |
| 20260902065706 | 21 | 225 | 0.0 | 0.0 | 0.00 | 0.00 | 0.00 | 99 | 1021.3 |
| 20260902065138 | 21 | 225 | 0.0 | 0.0 | 0.00 | 0.00 | 0.00 | 99 | 1021.3 |
| 20260902064506 | 21 | 248 | 0.0 | 0.0 | 0.00 | 0.00 | 0.00 | 99 | 1021.3 |
| 20260902063946 | 21 | 203 | 0.0 | 0.0 | 0.00 | 0.00 | 0.00 | 99 | 1021.3 |
| 20260902063330 | 21 | 203 | 0.0 | 0.0 | 0.00 | 0.00 | 0.00 | 99 | 1021.3 |
| 20260902060909 | 22 | 248 | 0.0 | 0.0 | 0.00 | 0.00 | 0.00 | 99 | 1021.3 |
| 20260902060343 | 22 | 248 | 0.0 | 0.0 | 0.00 | 0.00 | 0.00 | 99 | 1021.3 |
| 20260902055714 | 22 | 203 | 0.0 | 0.0 | 0.00 | 0.00 | 0.00 | 99 | 1021.3 |
| 20260902055125 | 22 | 203 | 0.0 | 0.0 | 0.00 | 0.00 | 0.00 | 99 | 1021.3 |
| 20260902054536 | 22 | 203 | 0.0 | 0.0 | 0.00 | 0.00 | 0.00 | 99 | 1021.3 |
| 20260902053929 | 22 | 225 | 0.0 | 0.0 | 0.00 | 0.00 | 0.00 | 99 | 1021.3 |
| 20260902053338 | 22 | 225 | 0.0 | 0.0 | 0.00 | 0.00 | 0.00 | 99 | 1021.3 |
| 20260902052123 | 22 | 203 | 0.0 | 0.0 | 0.00 | 0.00 | 0.00 | 99 | 1021.3 |
| 20260902051511 | 22 | 225 | 0.0 | 0.0 | 0.00 | 0.00 | 0.00 | 99 | 1020.9 |
| 20260902050907 | 22 | 225 | 0.0 | 0.0 | 0.00 | 0.00 | 0.00 | 99 | 1020.9 |
| 20260902050320 | 22 | 225 | 0.0 | 0.0 | 0.00 | 0.00 | 0.00 | 99 | 1020.9 |
| 20260902045729 | 22 | 225 | 0.0 | 0.0 | 0.00 | 0.00 | 0.00 | 99 | 1020.9 |
| 20260902045115 | 22 | 270 | 0.0 | 0.0 | 0.00 | 0.00 | 0.00 | 99 | 1020.9 |
| 20260902043942 | 22 | 203 | 0.0 | 0.0 | 0.00 | 0.00 | 0.00 | 99 | 1020.9 |
| 20260902043349 | 22 | 225 | 0.0 | 0.0 | 0.00 | 0.00 | 0.00 | 99 | 1020.9 |
| 20260902042748 | 22 | 225 | 0.0 | 0.0 | 0.00 | 0.00 | 0.00 | 99 | 1020.9 |
| 20260902042144 | 22 | 203 | 0.0 | 0.0 | 0.00 | 0.00 | 0.00 | 99 | 1020.9 |
| 20260902041539 | 22 | 225 | 0.0 | 0.0 | 0.00 | 0.00 | 0.00 | 99 | 1020.9 |
| 20260902040933 | 22 | 225 | 0.0 | 0.0 | 0.00 | 0.00 | 0.00 | 99 | 1020.9 |
| 20260902040333 | 22 | 203 | 0.0 | 0.0 | 0.00 | 0.00 | 0.00 | 99 | 1020.9 |
| 20260902035715 | 22 | 203 | 0.0 | 0.0 | 0.00 | 0.00 | 0.00 | 99 | 1020.9 |
| 20260902035111 | 22 | 180 | 0.0 | 0.0 | 0.00 | 0.00 | 0.00 | 99 | 1020.9 |
| 20260902034505 | 23 | 203 | 0.0 | 0.0 | 0.00 | 0.00 | 0.00 | 99 | 1020.9 |
| 20260902033906 | 23 | 203 | 0.0 | 0.0 | 0.00 | 0.00 | 0.00 | 99 | 1020.9 |
| 20260902033323 | 23 | 225 | 0.0 | 0.0 | 0.00 | 0.00 | 0.00 | 99 | 1020.9 |
| 20260902032117 | 23 | 203 | 0.0 | 0.0 | 0.00 | 0.00 | 0.00 | 99 | 1020.9 |
| 20260902031530 | 23 | 203 | 0.0 | 0.0 | 0.00 | 0.00 | 0.00 | 99 | 1020.9 |
| 20260902030914 | 23 | 225 | 0.0 | 0.0 | 0.00 | 0.00 | 0.00 | 99 | 1020.9 |
| 20260902025726 | 23 | 203 | 0.0 | 0.0 | 0.00 | 0.00 | 0.00 | 99 | 1020.9 |
| 20260902025144 | 23 | 203 | 0.0 | 0.0 | 0.00 | 0.00 | 0.00 | 99 | 1020.9 |
| 20260902024536 | 23 | 225 | 0.0 | 0.0 | 0.00 | 0.00 | 0.00 | 99 | 1020.6 |
| 20260902023948 | 23 | 225 | 0.0 | 0.0 | 0.00 | 0.00 | 0.00 | 99 | 1020.9 |
| 20260902023349 | 23 | 225 | 0.0 | 0.0 | 0.00 | 0.00 | 0.00 | 99 | 1020.9 |
| 20260902022717 | 23 | 203 | 0.0 | 0.0 | 0.00 | 0.00 | 0.00 | 99 | 1020.9 |
| 20260902022119 | 23 | 270 | 0.0 | 0.0 | 0.00 | 0.00 | 0.00 | 99 | 1020.6 |
| 20260902020938 | 23 | 248 | 0.0 | 0.0 | 0.00 | 0.00 | 0.00 | 99 | 1020.9 |
| 20260902020310 | 24 | 203 | 0.0 | 0.0 | 0.00 | 0.00 | 0.00 | 99 | 1020.9 |
| 20260902015123 | 24 | 203 | 0.0 | 0.0 | 0.00 | 0.00 | 0.00 | 99 | 1020.6 |
| 20260902014507 | 24 | 225 | 1.6 | 1.6 | 0.00 | 0.00 | 0.00 | 99 | 1020.6 |
| 20260902013906 | 24 | 203 | 0.0 | 3.2 | 0.00 | 0.00 | 0.00 | 99 | 1020.6 |
| 20260902013337 | 24 | 203 | 0.0 | 0.0 | 0.00 | 0.00 | 0.00 | 99 | 1020.6 |
| 20260902012738 | 25 | 203 | 0.0 | 0.0 | 0.00 | 0.00 | 0.00 | 99 | 1020.3 |
| 20260902012124 | 25 | 225 | 0.0 | 0.0 | 0.00 | 0.00 | 0.00 | 99 | 1020.3 |
| 20260902011532 | 25 | 203 | 0.0 | 0.0 | 0.00 | 0.00 | 0.00 | 99 | 1020.3 |
| 20260902010942 | 25 | 225 | 0.0 | 0.0 | 0.00 | 0.00 | 0.00 | 99 | 1020.3 |
| 20260902010322 | 25 | 180 | 0.0 | 3.2 | 0.00 | 0.00 | 0.00 | 99 | 1020.3 |
| 20260902005741 | 25 | 203 | 0.0 | 1.6 | 0.00 | 0.00 | 0.00 | 99 | 1020.3 |
| 20260902005121 | 25 | 203 | 0.0 | 0.0 | 0.00 | 0.00 | 0.00 | 99 | 1020.3 |
| 20260902004519 | 25 | 225 | 1.6 | 1.6 | 0.00 | 0.00 | 0.00 | 99 | 1019.9 |
| 20260902003908 | 26 | 270 | 3.2 | 3.2 | 0.00 | 0.00 | 0.00 | 99 | 1019.9 |
| 20260902003349 | 26 | 225 | 3.2 | 4.8 | 0.00 | 0.00 | 0.00 | 99 | 1019.9 |
| 20260902002718 | 26 | 225 | 3.2 | 3.2 | 0.00 | 0.00 | 0.00 | 99 | 1019.9 |
| 20260902002122 | 26 | 225 | 1.6 | 3.2 | 0.00 | 0.00 | 0.00 | 99 | 1019.9 |